�������l�o���
Date,Time,MP-1(��Sv/h),MP-2(��Sv/h),MP-3(��Sv/h),MP-4(��Sv/h),MP-5(��Sv/h),MP-6(��Sv/h),MP-7(��Sv/h),MP-8(��Sv/h),����,����(m/s),���J
2018/12/17,00:00,0.773,1.156,0.810,1.471,1.044,0.451,0.797,0.755,��쐼,7.9,��
2018/12/17,00:10,0.773,1.155,0.809,1.468,1.045,0.452,0.796,0.754,��쐼,6.5,��
2018/12/17,00:20,0.775,1.158,0.811,1.466,1.043,0.453,0.797,0.753,�쐼,5.6,��
2018/12/17,00:30,0.775,1.157,0.810,1.466,1.042,0.451,0.797,0.754,��쐼,7.0,��
2018/12/17,00:40,0.774,1.157,0.810,1.468,1.043,0.451,0.797,0.755,�쐼,6.3,��
2018/12/17,00:50,0.776,1.157,0.810,1.468,1.044,0.451,0.797,0.752,��쐼,5.5,��
2018/12/17,01:00,0.774,1.158,0.813,1.468,1.045,0.455,0.796,0.754,��쐼,4.9,��
2018/12/17,01:10,0.774,1.154,0.809,1.467,1.043,0.452,0.796,0.755,��쐼,2.6,��
2018/12/17,01:20,0.775,1.159,0.811,1.467,1.044,0.451,0.798,0.755,��,2.5,��
2018/12/17,01:30,0.774,1.155,0.810,1.468,1.043,0.451,0.796,0.752,��,4.3,��
2018/12/17,01:40,0.774,1.155,0.810,1.467,1.044,0.451,0.797,0.755,��,4.5,��
2018/12/17,01:50,0.774,1.155,0.810,1.466,1.042,0.452,0.796,0.755,��쐼,4.2,��
2018/12/17,02:00,0.773,1.155,0.811,1.469,1.041,0.454,0.799,0.755,��,5.8,��
2018/12/17,02:10,0.773,1.154,0.811,1.466,1.043,0.450,0.796,0.754,��쐼,4.4,��
2018/12/17,02:20,0.774,1.157,0.808,1.468,1.042,0.453,0.796,0.755,�쐼,3.3,��
2018/12/17,02:30,0.773,1.157,0.812,1.465,1.046,0.451,0.795,0.753,��,3.3,��
2018/12/17,02:40,0.773,1.155,0.809,1.467,1.043,0.452,0.798,0.754,��,2.6,��
2018/12/17,02:50,0.774,1.156,0.810,1.468,1.045,0.450,0.796,0.754,���쐼,2.6,��
2018/12/17,03:00,0.773,1.156,0.810,1.468,1.044,0.453,0.796,0.755,�쐼,2.5,��
2018/12/17,03:10,0.774,1.157,0.809,1.467,1.044,0.453,0.797,0.755,�쐼,1.5,��
2018/12/17,03:20,0.774,1.156,0.811,1.468,1.043,0.452,0.797,0.754,-,CALM,��
2018/12/17,03:30,0.775,1.159,0.811,1.466,1.044,0.453,0.796,0.753,�쐼,2.3,��
2018/12/17,03:40,0.774,1.155,0.810,1.466,1.042,0.453,0.795,0.753,�k�k��,2.9,��
2018/12/17,03:50,0.774,1.156,0.811,1.468,1.041,0.451,0.796,0.756,�k,2.2,��
2018/12/17,04:00,0.775,1.157,0.811,1.465,1.042,0.453,0.798,0.755,�k��,1.4,��
2018/12/17,04:10,0.776,1.156,0.810,1.468,1.043,0.452,0.797,0.754,���k��,2.0,��
2018/12/17,04:20,0.777,1.157,0.811,1.469,1.043,0.452,0.797,0.755,�k��,2.0,��
2018/12/17,04:30,0.774,1.160,0.810,1.468,1.043,0.452,0.797,0.755,���k��,2.3,��
2018/12/17,04:40,0.773,1.157,0.810,1.469,1.042,0.452,0.797,0.754,���k��,1.5,��
2018/12/17,04:50,0.776,1.157,0.809,1.469,1.042,0.452,0.796,0.754,�k�k��,1.7,��
2018/12/17,05:00,0.775,1.157,0.809,1.466,1.042,0.453,0.795,0.753,���k��,1.5,��
2018/12/17,05:10,0.773,1.157,0.809,1.470,1.043,0.452,0.797,0.753,�k�k��,1.1,��
2018/12/17,05:20,0.775,1.155,0.812,1.467,1.042,0.451,0.797,0.754,�k�k��,1.2,��
2018/12/17,05:30,0.774,1.154,0.810,1.469,1.044,0.452,0.797,0.754,�k�k��,1.2,��
2018/12/17,05:40,0.775,1.157,0.810,1.466,1.042,0.452,0.797,0.754,�k��,2.6,��
2018/12/17,05:50,0.774,1.157,0.810,1.469,1.042,0.451,0.797,0.755,�k��,3.5,��
2018/12/17,06:00,0.776,1.155,0.811,1.468,1.042,0.452,0.797,0.753,���k��,2.6,��
2018/12/17,06:10,0.773,1.157,0.812,1.469,1.042,0.450,0.795,0.755,���k��,3.2,��
2018/12/17,06:20,0.774,1.155,0.811,1.470,1.041,0.453,0.796,0.754,���k��,3.9,��
2018/12/17,06:30,0.776,1.155,0.812,1.467,1.042,0.450,0.796,0.753,�k��,5.3,��
2018/12/17,06:40,0.775,1.157,0.809,1.468,1.043,0.451,0.797,0.755,�k��,5.2,��
2018/12/17,06:50,0.773,1.155,0.811,1.467,1.045,0.452,0.796,0.754,�k��,5.9,��
2018/12/17,07:00,0.774,1.154,0.810,1.467,1.041,0.451,0.796,0.754,�k��,6.4,��
2018/12/17,07:10,0.775,1.158,0.810,1.469,1.043,0.452,0.796,0.755,���k��,5.7,��
2018/12/17,07:20,0.775,1.153,0.811,1.472,1.041,0.451,0.797,0.755,���k��,3.8,��
2018/12/17,07:30,0.776,1.155,0.809,1.469,1.043,0.452,0.797,0.754,�k��,5.1,��
2018/12/17,07:40,0.776,1.157,0.809,1.470,1.041,0.453,0.796,0.755,�k��,5.1,��
2018/12/17,07:50,0.775,1.155,0.810,1.469,1.042,0.452,0.798,0.755,�k��,5.5,��
2018/12/17,08:00,0.776,1.157,0.812,1.469,1.041,0.451,0.794,0.754,�k��,5.7,��
2018/12/17,08:10,0.775,1.157,0.811,1.471,1.041,0.450,0.797,0.753,�k��,5.9,��
2018/12/17,08:20,0.776,1.155,0.811,1.468,1.041,0.450,0.795,0.755,�k��,5.7,��
2018/12/17,08:30,0.776,1.153,0.812,1.469,1.039,0.452,0.798,0.756,�k��,4.8,��
2018/12/17,08:40,0.775,1.155,0.810,1.469,1.041,0.450,0.795,0.754,�k��,4.1,��
2018/12/17,08:50,0.776,1.154,0.807,1.469,1.041,0.451,0.794,0.755,�k��,3.6,��
2018/12/17,09:00,0.777,1.157,0.811,1.470,1.041,0.451,0.792,0.755,�k�k��,3.9,��
2018/12/17,09:10,0.775,1.154,0.811,1.471,1.042,0.451,0.793,0.753,�k��,3.8,��
2018/12/17,09:20,0.776,1.155,0.809,1.471,1.041,0.452,0.792,0.756,�k��,3.5,��
2018/12/17,09:30,0.775,1.153,0.811,1.469,1.041,0.451,0.792,0.753,���k��,2.6,��
2018/12/17,09:40,0.774,1.153,0.811,1.468,1.043,0.451,0.791,0.757,��,3.0,��
2018/12/17,09:50,0.777,1.152,0.810,1.471,1.042,0.452,0.792,0.754,���k��,3.7,��
2018/12/17,10:00,0.776,1.149,0.811,1.470,1.044,0.450,0.793,0.755,���k��,3.3,��
2018/12/17,10:10,0.777,1.153,0.809,1.470,1.043,0.454,0.791,0.754,���k��,3.4,��
2018/12/17,10:20,0.776,1.154,0.810,1.469,1.043,0.452,0.796,0.756,�k��,3.0,��
2018/12/17,10:30,0.779,1.155,0.811,1.471,1.042,0.451,0.795,0.755,�k��,2.6,��
2018/12/17,10:40,0.774,1.154,0.811,1.469,1.045,0.453,0.794,0.757,�k,3.6,��
2018/12/17,10:50,0.775,1.152,0.810,1.470,1.045,0.454,0.796,0.756,�k,3.4,��
2018/12/17,11:00,0.774,1.157,0.811,1.470,1.042,0.454,0.795,0.756,�k�k��,3.7,��
2018/12/17,11:10,0.774,1.154,0.811,1.470,1.045,0.453,0.796,0.756,�k�k��,3.6,��
2018/12/17,11:20,0.774,1.156,0.811,1.471,1.048,0.451,0.795,0.756,�k�k��,3.6,��
2018/12/17,11:30,0.772,1.156,0.811,1.471,1.045,0.453,0.797,0.756,�k��,3.8,��
2018/12/17,11:40,0.779,1.155,0.811,1.472,1.048,0.451,0.797,0.757,�k��,4.0,��
2018/12/17,11:50,0.777,1.156,0.812,1.471,1.044,0.452,0.796,0.754,�k�k��,5.4,��
2018/12/17,12:00,0.778,1.150,0.814,1.472,1.048,0.454,0.796,0.756,�k��,6.0,��
2018/12/17,12:10,0.778,1.154,0.811,1.470,1.047,0.450,0.795,0.756,�k�k��,5.7,��
2018/12/17,12:20,0.777,1.152,0.815,1.472,1.045,0.452,0.795,0.757,�k�k��,5.9,��
2018/12/17,12:30,0.780,1.155,0.812,1.474,1.044,0.453,0.797,0.757,�k�k��,6.6,��
2018/12/17,12:40,0.776,1.155,0.813,1.469,1.047,0.452,0.796,0.758,�k�k��,6.6,��
2018/12/17,12:50,0.777,1.157,0.815,1.472,1.046,0.452,0.796,0.757,�k�k��,7.0,��
2018/12/17,13:00,0.775,1.154,0.812,1.470,1.047,0.453,0.796,0.756,�k�k��,6.5,��
2018/12/17,13:10,0.778,1.153,0.811,1.471,1.044,0.452,0.796,0.755,�k�k��,6.1,��
2018/12/17,13:20,0.777,1.152,0.809,1.472,1.047,0.454,0.796,0.754,�k�k��,6.5,��
2018/12/17,13:30,0.777,1.153,0.813,1.469,1.048,0.452,0.796,0.754,�k�k��,6.7,��
2018/12/17,13:40,0.777,1.150,0.811,1.469,1.047,0.454,0.797,0.754,�k�k��,6.9,��
2018/12/17,13:50,0.776,1.153,0.812,1.470,1.046,0.453,0.798,0.753,�k�k��,6.2,��
2018/12/17,14:00,0.776,1.153,0.810,1.470,1.047,0.453,0.796,0.753,�k�k��,5.7,��
2018/12/17,14:10,0.777,1.150,0.811,1.470,1.048,0.453,0.797,0.754,�k�k��,5.8,��
2018/12/17,14:20,0.778,1.152,0.811,1.472,1.048,0.452,0.799,0.752,�k�k��,5.8,��
2018/12/17,14:30,0.776,1.150,0.811,1.471,1.046,0.453,0.797,0.754,�k�k��,5.8,��
2018/12/17,14:40,0.778,1.152,0.811,1.472,1.046,0.451,0.797,0.755,�k�k��,6.5,��
2018/12/17,14:50,0.776,1.153,0.811,1.472,1.043,0.453,0.797,0.757,�k,6.1,��
2018/12/17,15:00,0.777,1.155,0.813,1.475,1.048,0.454,0.798,0.757,�k,6.3,��
2018/12/17,15:10,0.776,1.156,0.812,1.471,1.048,0.453,0.797,0.757,�k,7.0,��
2018/12/17,15:20,0.776,1.159,0.813,1.470,1.048,0.454,0.797,0.758,�k,6.8,��
2018/12/17,15:30,0.780,1.159,0.813,1.473,1.048,0.451,0.798,0.754,�k,5.8,��
2018/12/17,15:40,0.777,1.159,0.813,1.471,1.049,0.453,0.797,0.756,�k�k��,5.2,��
2018/12/17,15:50,0.777,1.158,0.812,1.472,1.047,0.452,0.796,0.756,�k�k��,5.7,��
2018/12/17,16:00,0.779,1.158,0.811,1.471,1.047,0.452,0.796,0.756,�k�k��,5.3,��
2018/12/17,16:10,0.778,1.162,0.811,1.472,1.047,0.453,0.796,0.756,�k�k��,4.4,��
2018/12/17,16:20,0.777,1.160,0.812,1.472,1.045,0.452,0.799,0.758,�k�k��,4.1,�L
2018/12/17,16:30,0.777,1.162,0.812,1.470,1.046,0.453,0.798,0.756,�k�k��,6.1,��
2018/12/17,16:40,0.778,1.158,0.813,1.472,1.046,0.453,0.798,0.757,�k�k��,5.2,��
2018/12/17,16:50,0.776,1.159,0.810,1.474,1.046,0.450,0.798,0.755,�k�k��,5.7,��
2018/12/17,17:00,0.776,1.162,0.812,1.472,1.047,0.452,0.796,0.755,�k�k��,5.4,��
2018/12/17,17:10,0.775,1.159,0.815,1.474,1.048,0.452,0.797,0.757,�k�k��,4.4,��
2018/12/17,17:20,0.776,1.160,0.814,1.472,1.045,0.451,0.796,0.758,�k��,4.8,��
2018/12/17,17:30,0.777,1.161,0.815,1.470,1.044,0.452,0.796,0.756,�k�k��,5.7,��
2018/12/17,17:40,0.776,1.160,0.812,1.473,1.048,0.452,0.795,0.756,�k�k��,6.4,�L
2018/12/17,17:50,0.775,1.159,0.812,1.474,1.046,0.451,0.796,0.757,�k�k��,6.4,��
2018/12/17,18:00,0.778,1.162,0.813,1.474,1.046,0.451,0.798,0.755,�k�k��,5.3,�L
2018/12/17,18:10,0.776,1.162,0.812,1.469,1.046,0.451,0.796,0.756,�k�k��,6.2,��
2018/12/17,18:20,0.777,1.163,0.812,1.474,1.045,0.451,0.796,0.756,�k�k��,6.2,��
2018/12/17,18:30,0.776,1.162,0.812,1.472,1.046,0.451,0.797,0.756,�k�k��,5.5,��
2018/12/17,18:40,0.776,1.163,0.812,1.472,1.043,0.450,0.797,0.753,�k�k��,5.5,��
2018/12/17,18:50,0.775,1.162,0.809,1.473,1.047,0.451,0.796,0.757,�k�k��,5.3,��
2018/12/17,19:00,0.777,1.162,0.809,1.472,1.045,0.451,0.797,0.755,�k��,5.4,��
2018/12/17,19:10,0.776,1.161,0.811,1.472,1.048,0.452,0.796,0.753,�k��,5.2,�L
2018/12/17,19:20,0.776,1.159,0.811,1.470,1.044,0.452,0.798,0.754,�k��,5.1,�L
2018/12/17,19:30,0.775,1.161,0.810,1.473,1.046,0.450,0.797,0.755,�k��,5.2,�L
2018/12/17,19:40,0.776,1.161,0.809,1.472,1.042,0.453,0.796,0.757,�k��,5.5,��
2018/12/17,19:50,0.777,1.161,0.809,1.472,1.044,0.450,0.798,0.755,�k�k��,6.1,��
2018/12/17,20:00,0.774,1.162,0.806,1.473,1.046,0.453,0.796,0.755,�k��,6.0,��
2018/12/17,20:10,0.774,1.164,0.809,1.470,1.045,0.451,0.797,0.754,�k�k��,6.3,��
2018/12/17,20:20,0.777,1.161,0.809,1.472,1.044,0.450,0.797,0.754,�k�k��,5.9,��
2018/12/17,20:30,0.773,1.161,0.808,1.472,1.044,0.451,0.797,0.757,�k�k��,6.7,��
2018/12/17,20:40,0.775,1.163,0.810,1.473,1.046,0.452,0.797,0.754,�k�k��,5.6,��
2018/12/17,20:50,0.776,1.161,0.810,1.474,1.046,0.452,0.797,0.754,�k�k��,3.9,��
2018/12/17,21:00,0.776,1.162,0.809,1.471,1.045,0.452,0.797,0.755,�k��,2.0,��
2018/12/17,21:10,0.775,1.159,0.812,1.473,1.046,0.451,0.796,0.756,-,CALM,��
2018/12/17,21:20,0.777,1.157,0.814,1.472,1.045,0.451,0.796,0.754,��,0.8,��
2018/12/17,21:30,0.776,1.159,0.812,1.469,1.044,0.450,0.797,0.756,��쐼,1.2,��
2018/12/17,21:40,0.776,1.162,0.813,1.471,1.047,0.451,0.796,0.755,�k�k��,0.8,��
2018/12/17,21:50,0.776,1.161,0.813,1.473,1.044,0.450,0.797,0.756,���쐼,0.8,��
2018/12/17,22:00,0.776,1.160,0.812,1.472,1.045,0.451,0.795,0.753,��쐼,1.1,��
2018/12/17,22:10,0.774,1.161,0.811,1.474,1.043,0.452,0.797,0.756,��,1.7,��
2018/12/17,22:20,0.776,1.161,0.811,1.470,1.044,0.450,0.796,0.756,��,0.9,��
2018/12/17,22:30,0.775,1.161,0.811,1.471,1.045,0.452,0.797,0.756,�k��,6.2,��
2018/12/17,22:40,0.776,1.160,0.812,1.471,1.045,0.452,0.797,0.756,���k��,8.1,��
2018/12/17,22:50,0.775,1.161,0.812,1.472,1.045,0.451,0.796,0.756,���k��,9.8,��
2018/12/17,23:00,0.776,1.164,0.812,1.472,1.045,0.451,0.798,0.754,���k��,6.5,��
2018/12/17,23:10,0.774,1.162,0.813,1.471,1.046,0.451,0.796,0.754,���k��,8.3,��
2018/12/17,23:20,0.774,1.160,0.813,1.474,1.048,0.450,0.797,0.756,���k��,6.3,��
2018/12/17,23:30,0.775,1.160,0.813,1.473,1.046,0.450,0.797,0.755,���k��,6.8,��
2018/12/17,23:40,0.777,1.160,0.814,1.471,1.045,0.452,0.797,0.755,���k��,6.2,��
2018/12/17,23:50,0.775,1.160,0.813,1.471,1.045,0.453,0.796,0.755,���k��,5.8,��
